Location: *
(44.6480°S, 51.1140°W)
Time: 23:29:27
(UTC+00:00)

Daily predictions for brighter satellites

Satellite Brightness Start Highest point End
(mag) Time Altitude Azimuth Time Altitude Azimuth Time Altitude Azimuth
Cosmos 1850 Rocket 4.0 20:32:27 10° SSW 20:37:43 71° ESE 20:42:55 10° NNE
Okean-O 3.2 20:36:50 10° SSE 20:41:06 40° E 20:45:19 10° N
Cosmos 1470 3.3 20:46:30 10° NNW 20:50:28 63° W 20:54:29 10° S
ATLAS 3B R/B 3.8 20:46:27 10° NNE 20:51:47 25° ENE 20:57:18 10° ESE
Cosmos 1452 Rocket 4.1 20:47:02 10° NW 20:52:15 60° WSW 20:57:31 10° SSE
Cosmos-2242 4.3 20:49:07 10° NE 20:52:23 21° E 20:55:41 10° SE
MSX 4.0 20:48:52 10° SSE 20:54:42 82° WSW 21:00:27 10° NNW
Iridium 4 Rocket 3.6 20:53:36 10° S 20:59:20 70° E 21:04:32 10° N
Cosmos 1328 3.9 20:56:19 10° S 21:00:19 55° ESE 21:04:14 10° NNE
Cosmos 1953 3.6 20:57:23 10° NNW 21:01:19 44° WSW 21:05:17 10° S
Cosmos 1484 Rocket 3.0 21:00:13 10° SSE 21:04:08 52° E 21:08:03 10° N
Okean 3 Rocket 3.7 21:00:21 10° S 21:04:44 51° ESE 21:09:02 10° NNE
Cosmos 724 4.4 21:00:44 10° NNW 21:06:53 71° ENE 21:13:01 10° SE
OE (NEXTSAT) 4.4 21:07:15 10° W 21:10:51 81° S 21:13:25 18° ESE
Cosmos 1726 3.6 21:09:13 10° NE 21:11:39 17° E 21:11:59 17° E
Cosmos 2058 3.9 21:09:29 10° SSE 21:13:01 25° ESE 21:16:28 10° NE
Cosmos 2315 Rocket 4.2 21:07:30 10° S 21:13:42 51° ESE 21:19:52 10° NNE
Cosmos 2266 Rocket 3.9 21:10:52 10° N 21:16:55 73° E 21:23:05 10° SSE
BREEZE-M DEB (TANK) 2.6 21:16:35 10° W 21:18:42 45° S 21:21:58 17° ESE
Cosmos 1076 Rocket 3.5 21:14:21 10° S 21:18:43 87° ESE 21:23:00 10° N
Cosmos 921 Rocket 2.9 21:16:12 10° NNW 21:20:30 83° ENE 21:24:47 10° SSE
BREEZE-M DEB (TANK) 3.1 21:19:01 10° N 21:20:45 19° NE 21:21:22 18° ENE
USA 234 3.9 21:19:35 12° SE 21:25:32 48° SSW 21:31:48 10° W
Cosmos 1833 Rocket 4.2 21:23:13 10° NE 21:26:12 16° E 21:26:12 16° E
Cosmos 1908 3.8 21:23:51 10° NNE 21:27:28 36° E 21:30:02 17° SSE
Cosmos 883 Rocket 4.4 21:21:20 10° S 21:27:36 83° E 21:33:50 10° N
COSMOS 2406 3.2 21:22:39 10° N 21:28:14 62° ENE 21:33:37 11° SSE
Cosmos 1697 Rocket 3.8 21:24:20 10° S 21:28:43 22° SE 21:30:02 20° ESE
SeaSat 1 2.4 21:26:14 10° NE 21:31:10 74° ESE 21:36:10 10° SSW
METEOR-M 4.4 21:27:02 10° SSE 21:32:18 48° E 21:37:28 10° N
CENTAUR R/B 4.3 21:30:39 10° NE 21:35:04 16° ENE 21:35:30 16° ENE
Okean O Rocket 4.4 21:35:27 10° SSW 21:37:39 14° WSW 21:39:49 10° W
Thor Agena Rocket 4.0 21:36:00 10° NE 21:40:50 39° ESE 21:45:47 10° S
YAOGAN 1 3.8 21:42:50 24° ENE 21:42:50 24° ENE 21:45:42 10° NNE
Cosmos 2278 4.4 21:37:01 10° S 21:42:08 32° SE 21:44:05 26° E
Cosmos 2084 Rocket 4.4 21:40:06 10° SSW 21:44:22 33° SE 21:45:16 30° ESE
Cosmos 1626 4.1 21:43:25 10° SSW 21:46:49 31° W 21:50:11 10° NNW
CZ-2C R/B 4.4 21:44:10 10° S 21:48:01 25° WSW 21:51:55 10° WNW
CORIOLIS 4.2 21:44:52 10° SSE 21:50:17 61° ENE 21:55:38 10° N
Cosmos 1408 Rocket 3.5 21:46:09 10° S 21:50:42 75° E 21:55:11 10° NNE
Cosmos 1346 Rocket 3.3 21:48:51 10° NNW 21:52:48 60° WSW 21:56:46 10° S
FENGYUN 3A 3.8 21:50:37 11° SSE 21:55:48 53° E 22:01:06 10° N
NOSS 3-2 (A) 4.1 21:50:45 10° NNW 21:58:48 59° ENE 22:03:11 27° SE
Cosmos 2151 2.9 21:56:21 10° S 22:00:41 62° E 22:04:55 10° NNE
SMAP 3.1 21:56:34 10° SSE 22:01:20 83° WSW 22:06:01 10° NNW
USA 238 DEB 3.8 21:55:39 10° NNW 22:02:58 85° NE 22:07:46 23° SE
USA 238 3.8 21:55:45 10° NNW 22:03:04 85° NE 22:07:52 24° SE
CZ-4C R/B 3.6 22:03:25 10° SSW 22:08:06 22° SSE 22:08:06 22° SSE
Cosmos 1980 Rocket 3.5 22:04:19 10° S 22:07:30 23° SSE 22:07:30 23° SSE
CZ-4 R/B 1.2 22:09:03 68° E 22:09:08 68° ENE 22:13:01 10° N
ALOS 2.1 22:06:56 20° SSE 22:10:17 80° ENE 22:15:00 10° N
Cosmos 1486 Rocket 4.0 22:06:58 10° SSW 22:12:20 90° SE 22:17:40 10° NNE
Cosmos 2082 Rocket 3.1 22:16:57 10° N 22:20:30 32° NE 22:20:30 32° NE
Cosmos 1340 3.0 22:19:12 10° NNW 22:22:59 63° WSW 22:23:36 53° SSW
Cosmos 1656 3.6 22:19:57 10° SSW 22:25:42 76° ESE 22:27:46 41° NE
Nadezhda 1 Rocket 3.9 22:27:07 10° S 22:33:35 67° E 22:39:58 10° NNE
Cosmos 1354 Rocket 3.9 22:28:35 10° SSW 22:33:38 71° SE 22:33:38 71° SE
CSL-04 Rocket 4.0 22:31:53 12° S 22:37:01 66° WSW 22:42:22 10° NNW
NOSS 3-3 (A) 3.9 22:30:36 10° SW 22:37:18 86° NW 22:39:19 46° NNE
NOSS 3-3 (C) 3.9 22:30:41 10° SW 22:37:23 87° NW 22:39:22 46° NNE
CSL-04 Debris 4.4 22:33:15 14° S 22:38:01 70° WSW 22:43:31 10° NNW
SL-08 R/B 4.4 22:33:38 10° N 22:40:00 89° W 22:46:24 10° S
Ariane Rocket 3.0 22:38:49 49° S 22:40:16 81° WSW 22:45:24 10° NNW
ATLAS 3B R/B 2.8 22:34:52 10° NW 22:41:47 75° SW 22:44:43 39° SSE
NOSS 3-2 (C) 3.9 22:33:58 10° NNW 22:42:13 76° ENE 22:44:22 52° SE
IRS-1A Rocket 4.5 22:43:34 57° NNE 22:43:34 57° NNE 22:48:22 10° N
SL-16 R/B 4.4 22:39:39 10° S 22:40:12 12° S 22:40:12 12° S
Cosmos 1503 Rocket 4.0 22:39:45 10° SSW 22:44:42 78° SSW 22:44:42 78° SSW
Cosmos 1726 3.8 22:43:15 10° NW 22:46:37 33° WSW 22:46:37 33° WSW
NOAA 12 4.5 23:03:05 61° WNW 23:03:05 61° WNW 23:07:39 10° NNW
USA 234 4.4 23:06:56 30° S 23:07:38 31° S 23:13:14 10° WSW
BREEZE-M DEB 4.4 22:47:49 10° WSW 23:08:40 84° SSE 23:09:09 78° ESE
Cosmos 1833 Rocket 3.3 23:03:55 10° NNW 23:07:59 49° NW 23:07:59 49° NW
Cosmos 2369 4.4 23:05:30 10° SW 23:11:01 50° WNW 23:11:52 46° NW
Cosmos 1697 Rocket 3.4 23:07:34 10° SSW 23:11:50 50° SW 23:11:50 50° SW
Cosmos 1745 Rocket 4.4 23:11:48 10° NNW 23:17:53 59° WSW 23:19:39 44° SSW
CENTAUR R/B 3.4 23:16:53 10° NNW 23:22:45 50° N 23:22:45 50° N
Cosmos 1980 Rocket 4.4 23:47:48 10° SSW 23:49:18 19° SW 23:49:18 19° SW
